{"data":{"norad_id":53184,"epoch":"2026-05-24T23:31:47.988192Z","epoch_age_seconds":66883,"freshness":"FRESH","line1":"1 53184U 22083BE  26144.98041653  .00000420  00000+0  44488-4 0  9996","line2":"2 53184  53.2139 141.2227 0001265  76.0174 284.0959 15.08840621213440","mean_motion":15.08840621,"eccentricity":0.0001265,"inclination_deg":53.2139,"raan_deg":141.2227,"arg_perigee_deg":76.0174,"mean_anomaly_deg":284.0959,"bstar":4.4488e-5,"rev_number":21344,"period_min":95.437515398122,"perigee_km":538.8663791871,"apogee_km":540.61660244528,"semimajor_km":6917.8784908162,"source":"CELESTRAK","updated_at":"2026-05-25T13:38:17.326918Z"}}